Location: ????????
(60.4333°N, 46.4710°E)
Time: 19:24:52
(UTC+00:00)

USA 267 - Pass Details

Date: 25 November 2020
Orbit: 1100 x 1107 km, 123.0° (Epoch: 06 January)

Event Time Altitude Azimuth Distance (km) Brightness Sun altitude
Rises 13:04:20 0° 104° (ESE) 3,917 5.7 -7.0°
Reaches altitude 10° 13:06:50 10° 108° (ESE) 2,960 5.1 -7.2°
Maximum altitude 13:13:20 65° 190° (S) 1,202 3.7 -7.9°
Drops below altitude 10° 13:19:52 10° 272° (W) 2,967 6.6 -8.6°
Sets 13:22:23 0° 276° (W) 3,926 7.2 -8.9°
